Theta_e
311 313 319 316 315 314 315 316 317 315 311 311 315 315 315 315 313 312 312 312 312 311 311 311 311 310 308 307 304 300 306 310 311 312 312 312 312 312 313 312 309 306 306 306
312 313 314 311 311 313 313 315 317 315 309 311 315 314 315 312 311 310 310 310 310 310 309 311 311 309 308 306 301 302 310 310 311 312 311 312 312 311 310 310 308 306 305 306
314 314 310 312 312 313 314 317 317 315 312 309 311 322 319 312 310 310 310 309 308 309 309 310 310 308 307 304 301 306 310 310 311 312 312 312 311 312 311 311 308 306 306 306
312 310 311 312 314 314 316 312 311 312 314 322 312 332 320 314 312 309 310 310 309 307 308 309 309 308 306 301 301 307 310 310 311 312 312 312 311 312 312 311 309 308 308 308
313 311 312 313 314 312 315 310 311 311 313 313 315 320 328 312 315 312 312 310 308 308 307 309 308 307 304 301 302 307 310 311 312 313 313 313 312 313 314 314 314 311 309 310
310 307 309 311 307 308 309 310 310 311 313 321 313 316 333 322 315 311 311 309 307 307 308 308 307 305 301 301 302 307 310 311 313 313 314 313 312 314 315 316 317 314 314 314
309 310 307 307 310 308 309 312 327 329 321 325 311 313 324 316 310 309 312 310 307 307 308 307 306 303 300 301 304 308 310 312 313 313 314 313 313 313 315 317 316 316 315 317
312 312 309 308 311 313 310 313 321 330 323 317 310 317 321 311 309 309 307 310 308 307 307 307 306 302 300 301 305 308 310 311 312 313 314 313 314 313 314 317 318 318 315 316
310 309 306 306 306 309 310 311 309 311 305 314 317 314 314 309 309 308 309 308 309 307 307 307 305 301 300 301 306 308 310 311 312 312 314 314 314 315 315 315 317 318 320 318
311 313 307 307 307 306 309 307 312 312 321 321 317 314 320 312 310 309 310 309 309 308 307 307 306 302 300 301 306 307 310 311 311 312 313 314 315 314 315 316 316 316 317 319
309 312 309 307 309 310 308 309 309 311 312 318 319 319 312 311 309 310 310 310 309 308 308 308 306 302 300 301 305 307 309 310 311 311 312 313 315 314 314 315 316 317 316 319
309 311 312 310 306 305 307 310 310 316 313 309 310 318 309 308 307 307 308 308 308 308 308 308 306 302 300 300 304 307 309 310 311 311 313 313 314 314 314 314 315 316 317 317
309 314 314 311 308 304 308 308 308 307 308 310 317 318 307 306 306 307 308 307 308 307 308 307 306 303 301 300 303 306 308 309 311 312 313 314 314 314 314 314 315 316 317 317
307 309 315 319 316 310 308 309 308 310 314 314 312 316 314 310 309 308 307 307 307 308 307 307 306 305 302 300 302 305 307 308 310 312 312 313 313 313 314 314 315 315 315 315
308 311 309 310 308 308 309 309 309 310 312 314 316 312 314 313 310 309 309 307 307 307 307 307 307 306 305 302 301 303 307 308 308 311 311 312 312 312 312 314 313 314 315 315
306 311 305 307 306 307 307 309 309 310 311 311 310 309 310 311 310 309 308 307 307 308 308 309 308 308 307 304 302 302 306 308 308 308 311 310 312 312 312 313 314 313 313 313
308 310 311 316 305 308 313 310 308 309 309 310 311 311 311 311 310 309 309 307 307 308 308 309 309 308 308 306 304 302 304 307 307 308 309 310 311 311 311 311 312 312 310 311
307 309 311 315 307 317 316 305 310 310 309 309 310 310 311 312 312 309 310 310 308 309 309 309 308 308 307 307 305 302 302 307 307 307 309 309 309 310 310 311 311 310 308 307
307 308 313 315 314 315 315 307 309 309 312 310 308 309 310 307 306 309 309 309 310 310 306 307 307 306 307 307 306 304 301 306 307 308 308 309 308 308 309 309 309 309 308 307
307 308 311 314 317 318 311 305 303 308 316 307 309 310 310 306 311 312 309 309 306 305 306 306 306 306 306 307 306 305 302 303 307 308 309 308 308 307 307 307 307 307 306 305
308 309 311 314 316 315 304 302 302 316 311 301 300 305 308 308 310 308 305 305 306 306 306 305 305 306 306 306 306 305 304 301 304 307 308 308 308 306 303 302 301 301 300 300
303 301 311 312 314 316 298 302 305 299 299 301 298 301 304 306 304 304 304 304 305 306 306 306 306 304 305 306 306 306 305 305 301 306 308 308 308 307 304 302 299 298 297 296
299 295 295 299 302 297 295 295 294 295 295 296 297 299 301 302 303 303 304 304 304 305 305 306 305 305 304 304 305 305 306 305 303 301 306 307 307 306 305 303 300 298 297 296
294 292 292 295 299 295 295 294 293 293 293 293 294 297 302 299 301 303 304 304 304 303 303 303 304 304 303 303 303 304 304 303 303 302 301 306 306 305 303 302 301 299 297 296
291 291 292 293 295 295 296 292 292 292 293 293 295 294 296 299 297 298 301 301 302 302 303 303 303 302 302 302 302 302 302 302 302 302 301 299 303 306 305 304 302 300 299 297
291 291 294 296 294 293 292 290 291 292 291 293 292 293 294 295 295 294 296 297 299 300 301 302 302 302 302 302 303 302 301 302 302 301 301 301 300 299 302 304 304 302 301 298
Wind_Speed
4 7 9 14 11 2 1 3 8 5 0 5 12 20 23 23 22 23 23 22 22 18 15 17 16 14 11 11 15 19 22 17 16 18 20 15 15 16 15 12 12 11 4 4
4 12 9 4 6 4 3 5 7 6 2 4 13 25 23 10 6 8 10 12 17 18 18 19 16 13 9 10 13 17 17 14 16 19 16 16 16 16 15 12 11 8 1 4
10 1 7 5 6 6 5 5 3 5 7 2 12 9 5 1 4 6 7 6 7 16 20 21 17 12 8 8 11 14 15 13 14 13 14 16 15 16 14 14 11 5 4 7
8 4 6 7 6 8 5 5 3 2 4 4 6 7 7 3 8 5 5 4 4 11 18 21 17 12 7 6 9 11 14 11 9 9 12 15 15 17 16 15 13 7 8 10
5 9 8 6 4 9 0 4 3 1 1 4 2 4 7 2 4 3 3 3 6 11 19 21 16 12 6 5 6 9 11 9 7 7 9 11 10 11 13 12 22 17 17 24
1 1 3 1 3 1 10 4 2 1 2 3 2 3 6 3 3 1 3 5 9 16 19 18 15 11 7 5 4 7 8 6 4 4 8 9 8 9 10 13 19 18 17 20
3 4 2 3 6 3 3 3 2 3 2 3 2 3 11 5 4 2 7 9 11 16 19 18 15 11 7 4 3 4 5 3 3 4 6 6 7 8 10 11 16 19 19 16
13 7 12 8 4 5 9 4 4 5 3 1 1 6 4 1 2 4 3 10 13 16 18 18 15 12 8 5 3 2 3 3 2 2 6 4 5 6 8 10 11 16 20 17
8 5 1 2 2 2 7 8 2 3 2 2 5 7 11 7 5 6 9 9 16 18 20 19 17 14 10 6 5 4 2 2 5 4 4 5 4 6 7 11 10 13 14 17
6 1 1 3 3 1 4 6 3 2 4 5 4 5 8 3 9 10 10 16 16 18 20 20 18 16 12 8 6 6 2 1 6 7 7 6 6 7 9 12 11 10 13 14
6 3 4 4 11 13 6 6 3 2 3 3 2 4 3 3 3 7 14 15 17 20 22 22 20 17 14 11 8 8 5 0 3 5 10 8 9 7 9 12 13 13 11 12
7 3 5 6 1 3 4 8 10 5 6 3 0 5 3 3 2 3 9 13 14 18 21 21 20 19 16 13 10 10 10 4 2 7 10 10 10 10 12 15 15 15 14 16
9 5 4 1 2 2 8 11 8 2 1 7 6 4 1 3 4 5 4 13 15 18 21 23 23 23 20 17 14 11 13 10 6 8 10 11 12 13 13 14 14 15 14 16
6 4 6 9 2 6 8 17 20 16 5 7 10 6 4 4 5 5 8 10 14 19 23 26 26 25 23 21 18 15 15 16 12 10 9 10 12 13 14 15 17 17 16 15
3 4 4 7 1 4 4 10 22 23 22 13 9 19 18 10 10 11 7 12 15 20 24 27 27 27 26 25 23 19 18 19 18 16 14 10 10 11 13 17 17 17 16 18
2 2 1 3 4 4 4 11 17 23 21 21 13 15 12 19 13 15 14 16 17 17 22 25 27 29 30 30 28 24 22 21 21 20 18 15 15 14 16 18 18 17 17 17
8 5 2 3 1 1 9 19 15 12 14 23 20 25 7 10 12 14 16 18 20 19 18 20 25 31 33 32 30 29 25 24 24 23 21 19 19 19 20 21 20 18 19 20
6 6 3 1 1 7 4 4 14 22 16 22 16 17 11 20 19 11 11 15 19 17 19 21 25 29 32 31 32 31 29 28 26 26 24 23 23 23 22 23 22 24 25 22
10 6 4 5 7 8 11 4 7 12 12 18 22 23 21 7 5 15 18 18 19 20 15 14 14 17 28 29 29 34 33 32 30 31 29 28 27 25 25 24 24 24 24 23
13 10 6 4 5 8 3 2 3 3 4 15 15 21 18 9 9 12 12 19 13 9 6 8 12 12 17 26 27 33 38 37 36 35 33 31 30 28 27 26 25 25 25 24
4 4 12 9 4 5 11 10 6 6 5 29 22 20 11 9 10 7 14 11 7 4 4 4 5 8 10 19 27 29 38 43 36 35 36 35 33 30 28 27 27 26 26 26
4 4 4 6 6 8 29 6 5 11 22 28 28 19 9 5 7 7 5 5 5 6 7 8 7 5 7 12 23 29 36 39 38 38 39 38 36 35 33 31 30 30 29 29
1 3 4 5 4 3 11 13 14 17 17 30 29 28 9 5 6 6 1 3 4 3 3 7 8 7 6 9 16 25 28 34 42 43 42 42 40 38 37 36 35 35 34 34
2 2 4 8 3 15 5 21 27 32 32 40 34 28 20 20 15 7 4 4 4 4 4 6 6 7 6 7 11 16 21 27 36 45 45 45 46 43 41 40 40 39 40 40
8 9 4 10 12 12 1 24 25 33 35 41 37 32 23 18 16 12 7 5 4 5 6 7 7 6 6 7 7 11 15 22 28 34 44 49 49 49 48 46 45 46 45 44
5 4 4 5 9 3 13 23 21 25 27 31 33 33 27 21 19 16 12 10 10 9 9 9 9 10 9 10 9 12 14 18 23 28 34 42 49 52 53 52 50 49 48 48
Wind_Direction
178 212 215 214 213 255 149 245 267 260 134 280 267 280 282 281 264 260 260 246 234 223 218 220 229 243 257 286 309 321 326 326 338 341 343 351 2 1 355 330 332 339 293 208
174 235 231 103 165 182 202 262 266 278 226 280 301 293 291 299 267 253 261 245 235 216 206 210 219 230 246 285 313 325 326 330 344 351 1 1 5 6 3 7 9 7 91 159
218 33 152 160 168 190 219 226 230 271 314 225 307 281 306 155 274 257 248 254 229 206 194 200 205 214 239 287 314 329 334 337 347 6 9 14 20 19 29 27 25 40 93 125
240 154 163 183 206 194 236 203 204 263 321 298 4 289 302 317 294 251 240 229 196 187 185 193 195 203 229 280 309 329 339 339 354 25 11 17 35 39 42 49 53 66 94 121
182 177 179 198 215 188 170 143 140 132 278 312 167 243 270 329 287 231 196 166 158 167 173 180 185 199 218 267 303 323 336 345 8 42 20 36 46 48 37 59 72 68 104 114
97 279 211 188 81 37 139 114 93 123 234 248 86 254 280 235 248 194 157 155 155 160 168 175 183 196 214 253 304 322 328 327 22 49 36 45 79 77 62 69 100 90 108 129
158 204 176 166 119 101 182 176 246 239 201 259 125 218 258 262 240 259 177 169 164 167 174 180 187 196 212 241 292 310 328 327 60 65 70 54 79 110 76 85 102 119 130 123
195 225 179 174 221 185 184 236 218 248 231 32 131 231 251 206 222 171 129 180 176 181 186 188 191 198 210 226 237 262 326 262 159 97 105 100 85 109 110 97 115 120 136 151
183 221 104 169 156 189 160 212 21 100 82 282 221 257 271 219 221 208 210 186 195 196 197 197 197 202 209 216 217 221 287 240 201 185 147 150 137 103 130 134 127 131 136 141
193 158 240 147 153 103 231 148 144 225 215 233 211 273 248 202 211 205 209 209 202 201 203 204 204 205 208 211 215 214 234 242 210 199 184 159 170 143 128 134 146 151 144 154
153 215 136 165 212 181 159 192 214 246 227 226 259 237 211 207 191 216 211 208 204 203 205 207 208 207 209 210 213 211 202 68 194 193 189 173 177 169 163 148 156 162 167 162
178 128 165 196 27 289 229 199 194 209 193 232 21 274 155 241 220 228 214 201 203 209 207 209 210 210 213 211 212 207 200 181 175 166 175 183 179 184 167 167 167 175 170 183
179 192 133 130 222 201 218 203 212 124 83 200 181 232 143 217 222 214 193 202 205 205 206 210 212 213 215 214 211 208 199 197 181 179 189 190 180 178 173 178 174 171 179 184
163 192 228 216 150 146 194 200 199 202 205 196 224 257 228 238 227 199 209 211 214 212 210 213 216 218 217 217 214 210 202 197 189 179 184 201 201 195 196 181 183 187 196 196
207 244 220 250 288 195 217 200 197 208 212 211 214 223 239 215 197 207 222 207 209 218 217 218 222 225 221 218 215 211 204 199 196 189 199 198 181 176 172 171 180 170 166 162
200 244 40 271 200 218 259 232 211 218 224 239 256 261 239 255 259 244 235 221 218 220 223 227 232 231 230 224 219 214 210 202 200 199 201 200 189 176 168 166 167 162 164 167
173 177 117 254 16 176 274 229 200 203 216 217 226 237 225 257 235 243 224 224 227 219 243 244 249 244 239 234 226 218 213 205 201 198 199 195 192 182 176 175 175 173 166 162
170 153 167 143 129 219 266 345 213 207 207 215 239 247 238 237 237 249 242 228 230 245 263 264 256 250 247 243 232 222 214 210 204 200 197 192 186 181 176 176 175 172 167 164
186 175 184 194 211 318 292 195 173 185 243 219 227 244 245 218 237 254 229 230 252 262 250 256 266 260 243 243 238 226 216 213 207 202 198 194 189 187 185 183 182 181 182 180
195 199 202 168 206 215 352 11 260 182 267 17 257 245 258 166 248 259 239 233 205 212 226 243 260 270 248 228 230 225 218 216 212 206 201 199 196 196 195 194 195 195 195 195
191 201 208 212 218 279 358 342 321 190 332 328 327 299 245 201 228 273 178 172 175 191 228 246 261 270 259 232 225 223 219 219 217 212 207 205 204 204 203 206 205 206 207 207
355 305 193 206 206 229 360 29 25 325 325 329 340 341 294 215 142 143 183 223 258 272 269 270 269 267 248 232 225 226 225 223 219 219 215 212 211 210 210 212 213 213 214 215
164 46 309 338 57 357 41 62 8 4 355 351 346 337 8 52 14 344 315 321 321 321 294 282 272 263 261 240 233 232 233 226 221 222 221 218 217 217 217 218 218 219 219 219
44 67 341 317 145 334 293 12 6 0 353 347 351 351 346 334 326 328 327 336 338 344 343 345 300 273 269 249 242 241 235 233 230 227 225 225 223 223 223 224 225 226 226 225
281 317 277 282 277 306 352 0 347 342 341 343 347 356 355 352 360 354 342 334 327 313 309 320 330 311 278 270 256 244 234 229 230 233 231 230 230 229 230 231 232 231 233 233
210 235 223 277 358 307 312 325 328 336 339 341 344 345 355 348 342 347 349 333 319 309 306 303 302 297 293 285 272 262 246 236 233 232 233 233 234 235 236 237 239 239 239 240